Wind_Speed
18 17 17 20 22 23 24 25 27 26 23 21 20 19 18 18 19 21 24 27 27 26 25 24 24 24 24 23 22 21 20 19 19 19 20 19 18 19
16 15 15 16 17 18 20 22 25 27 25 24 22 20 19 18 17 17 20 24 27 27 25 25 25 26 26 24 22 21 20 19 19 19 19 18 18 18
16 15 15 15 16 16 16 18 22 26 28 27 26 23 22 21 20 19 17 20 24 28 28 27 28 28 28 26 25 23 22 21 20 20 20 20 21 21
16 15 15 16 16 16 15 16 19 24 27 30 31 29 27 25 23 22 21 22 22 24 26 27 28 29 29 28 27 26 25 24 23 23 23 24 24 24
18 17 16 15 16 17 16 15 17 20 24 27 29 31 30 28 27 26 26 25 25 24 24 25 27 28 28 27 26 26 26 26 25 25 26 26 26 25
22 21 20 17 16 17 18 18 18 19 22 23 25 28 30 30 29 29 30 30 29 27 27 28 28 28 28 27 27 27 27 27 27 27 27 27 27 26
24 24 24 22 21 20 20 20 20 20 22 24 26 26 27 29 30 32 32 32 32 31 31 30 29 29 30 30 30 29 29 30 30 30 30 29 28 26
26 26 26 26 24 24 24 24 23 23 24 25 27 28 29 31 33 35 36 34 34 35 34 31 30 31 33 32 32 32 32 31 31 32 32 31 30 29
27 26 26 26 26 26 25 25 25 25 25 24 25 27 28 30 32 35 38 39 38 36 34 33 32 34 34 33 33 33 34 34 34 34 34 34 34 33
24 25 25 26 26 26 25 25 26 26 25 25 25 26 27 26 28 32 36 40 41 39 36 34 35 35 34 33 33 33 33 34 35 35 35 36 37 37
22 24 25 26 26 25 26 26 25 25 25 25 25 26 26 26 26 28 32 37 41 43 39 36 37 37 35 35 35 35 35 35 35 36 36 37 38 38
23 25 25 25 24 22 23 23 23 23 23 24 24 25 25 25 25 25 27 33 40 44 44 41 41 41 39 38 37 36 37 37 37 37 37 37 37 38
26 28 29 28 26 24 22 21 20 20 21 21 22 22 22 21 21 21 22 25 31 38 43 45 45 45 44 42 40 38 37 38 39 40 40 40 40 40
29 32 33 33 31 29 25 23 20 19 19 19 20 21 21 20 21 21 22 24 24 26 30 34 38 41 42 41 40 41 42 42 42 43 44 45 45 44
29 32 35 37 36 34 30 26 22 20 19 19 20 21 22 24 25 26 26 26 27 28 29 30 32 34 37 38 40 41 43 43 43 44 45 46 47 48
29 31 33 34 35 34 31 27 24 21 20 20 21 22 23 25 27 29 30 31 31 32 33 33 34 34 35 37 38 40 41 42 44 45 45 46 46 46
19 18 19 22 25 27 26 24 22 20 19 20 21 22 23 24 25 26 28 29 29 30 31 32 33 34 35 36 37 38 39 40 40 41 42 44 46 47
9 3 4 10 14 17 19 19 18 17 17 18 19 20 22 22 22 21 22 23 24 26 28 29 31 32 34 35 37 38 40 41 41 40 39 40 41 44
7 8 8 9 10 12 14 14 13 13 14 14 15 16 16 18 19 21 23 25 26 28 29 31 32 34 35 36 38 40 40 42 43 43 43 42 42 43
10 11 12 11 11 11 10 9 8 8 9 10 11 14 16 18 20 21 23 25 26 28 29 31 32 34 35 36 37 39 41 42 42 43 44 45 45 45
13 13 13 13 13 12 10 7 4 2 5 8 11 14 16 19 21 23 25 27 28 30 31 33 34 35 36 37 38 39 41 42 43 44 45 46 46 46
16 16 16 16 14 12 10 6 4 3 5 8 10 13 16 19 22 24 26 28 30 31 32 32 33 33 34 34 36 37 38 40 42 44 45 46 46 46
23 20 18 17 15 13 11 10 9 8 9 10 13 16 18 20 22 23 24 25 26 27 28 29 30 30 30 30 31 32 34 36 38 40 41 42 42 43
Wind_Direction
279 273 270 265 262 261 261 258 242 224 224 230 231 231 233 233 233 236 234 232 232 233 236 236 236 239 241 247 246 244 243 243 243 242 242 246 251 256
271 265 263 262 262 259 259 251 234 223 222 229 233 234 233 231 232 234 235 234 236 236 237 236 236 240 245 252 250 246 242 240 240 243 246 250 254 259
262 258 254 259 259 258 255 245 231 223 221 226 232 236 238 238 239 240 240 238 239 239 239 238 238 241 247 252 251 247 243 242 244 248 253 254 255 258
258 254 250 253 253 252 251 243 234 226 225 227 234 238 240 242 245 245 246 244 241 239 239 240 239 240 243 245 245 243 242 244 247 252 255 256 255 256
254 254 252 251 247 245 245 246 242 234 230 231 235 238 241 243 245 246 247 248 246 241 240 240 239 239 240 241 242 243 245 247 250 254 255 253 251 252
251 252 253 251 247 246 243 242 244 242 235 235 240 244 244 243 243 244 246 245 246 245 243 242 242 243 243 245 247 249 252 254 254 253 253 253 252 252
250 249 250 251 248 246 243 242 244 246 244 244 247 249 247 246 245 245 246 245 243 242 243 244 246 249 248 246 246 247 249 251 252 252 254 254 254 254
254 249 248 250 251 248 245 244 246 248 250 251 251 252 252 250 250 249 246 245 244 241 241 245 249 250 251 249 248 247 247 248 251 253 255 256 256 255
257 253 249 249 250 250 248 246 247 250 252 255 256 256 256 254 253 253 248 243 242 242 242 246 248 249 250 251 252 251 250 251 253 254 256 257 258 259
259 254 252 250 249 249 249 249 249 250 252 254 258 260 261 262 260 257 252 245 241 243 245 248 251 250 250 252 254 254 254 254 256 257 258 259 261 262
263 255 251 250 249 250 252 253 253 253 253 254 256 258 261 263 266 264 256 248 244 244 247 250 252 252 254 257 257 256 256 257 258 259 260 261 261 262
263 257 253 251 250 251 253 255 257 257 256 256 257 257 260 263 264 263 257 250 245 246 248 250 252 256 258 259 259 258 257 258 259 259 260 260 260 261
262 259 257 255 252 250 252 255 257 258 259 258 258 257 257 258 257 255 254 252 249 247 249 251 253 255 256 257 260 261 259 258 259 261 262 262 261 261
266 261 257 252 249 248 249 251 253 253 255 255 255 253 250 249 249 251 253 254 255 254 253 252 251 251 253 255 259 263 264 263 263 263 263 263 263 263
275 269 260 251 245 244 245 248 249 250 251 251 250 249 247 247 249 252 254 256 258 260 263 263 262 259 259 259 260 262 264 265 267 266 265 265 265 264
284 275 262 250 242 238 239 241 244 246 247 249 249 249 250 251 253 256 260 263 265 266 267 268 269 270 270 270 269 268 268 268 269 269 268 267 266 265
300 282 257 238 229 227 230 233 237 244 250 251 250 250 252 255 260 263 265 266 267 269 269 270 271 272 272 272 271 271 271 272 273 273 272 270 266 264
345 336 193 190 198 207 212 219 228 239 245 247 252 256 258 262 266 268 270 271 272 273 273 274 275 275 275 274 273 273 273 275 276 277 276 274 271 267
48 80 108 131 157 176 189 202 214 226 240 252 259 262 265 268 271 272 274 275 276 277 277 277 276 276 276 277 277 276 275 275 276 276 276 275 273 271
76 91 103 113 125 141 159 178 197 219 240 257 270 276 280 282 282 282 282 282 281 281 280 280 280 279 278 278 277 278 277 276 275 275 274 273 272 271
87 96 101 102 105 110 116 127 149 221 273 286 291 294 295 295 294 293 291 290 289 288 287 286 285 284 282 280 279 279 278 277 276 275 274 273 272 271
93 95 94 94 94 94 92 84 61 15 343 330 322 316 311 306 303 301 298 296 295 293 291 289 289 288 286 284 283 281 280 279 277 276 274 273 272 270
87 90 88 86 84 81 76 68 56 39 18 359 346 337 330 324 318 313 308 305 302 299 295 293 291 290 289 288 288 287 286 284 282 280 278 275 273 271
Height
5799 5798 5799 5800 5803 5804 5805 5806 5809 5812 5815 5817 5820 5823 5825 5826 5828 5830 5833 5835 5838 5841 5844 5846 5849 5851 5854 5856 5858 5859 5861 5862 5864 5866 5868 5869 5870 5871
5795 5794 5794 5796 5798 5799 5800 5801 5803 5807 5810 5813 5815 5818 5821 5823 5824 5826 5828 5831 5834 5836 5839 5842 5845 5847 5850 5852 5854 5855 5857 5858 5860 5861 5863 5864 5864 5865
5790 5789 5790 5791 5793 5794 5795 5797 5799 5803 5806 5808 5811 5814 5816 5819 5820 5822 5824 5826 5829 5831 5834 5837 5840 5842 5844 5846 5848 5850 5852 5854 5855 5857 5857 5858 5859 5861
5786 5785 5785 5787 5788 5789 5791 5793 5795 5798 5800 5803 5806 5809 5811 5814 5816 5818 5820 5822 5824 5826 5829 5831 5834 5836 5839 5841 5843 5845 5847 5849 5850 5851 5852 5854 5855 5856
5782 5782 5782 5782 5783 5784 5786 5789 5791 5793 5795 5798 5800 5802 5805 5808 5810 5813 5815 5817 5819 5821 5823 5825 5827 5830 5832 5834 5837 5839 5841 5843 5844 5845 5846 5847 5848 5849
5777 5778 5778 5778 5779 5780 5782 5784 5786 5788 5790 5793 5794 5796 5799 5801 5804 5806 5808 5811 5813 5815 5817 5818 5821 5823 5826 5828 5830 5832 5834 5835 5837 5838 5840 5841 5841 5842
5771 5772 5774 5774 5775 5775 5777 5778 5781 5783 5785 5787 5789 5791 5792 5794 5797 5799 5801 5804 5807 5809 5811 5812 5815 5818 5819 5821 5823 5824 5826 5828 5829 5831 5832 5833 5834 5835
5763 5765 5767 5768 5769 5770 5771 5773 5775 5777 5779 5781 5782 5784 5786 5787 5788 5790 5793 5797 5800 5801 5804 5807 5809 5810 5811 5814 5816 5817 5818 5820 5821 5823 5824 5825 5826 5827
5756 5757 5758 5760 5762 5763 5764 5766 5767 5769 5772 5774 5775 5776 5778 5779 5780 5782 5785 5788 5791 5793 5797 5799 5800 5802 5804 5806 5808 5809 5811 5812 5813 5814 5815 5816 5817 5818
5748 5749 5751 5752 5754 5756 5757 5759 5760 5762 5764 5766 5767 5769 5770 5771 5772 5773 5775 5779 5783 5785 5788 5790 5792 5794 5797 5799 5800 5800 5801 5803 5804 5805 5806 5807 5807 5808
5741 5742 5743 5745 5747 5748 5750 5752 5753 5755 5757 5758 5760 5761 5763 5764 5764 5765 5766 5769 5773 5776 5779 5782 5783 5785 5788 5790 5791 5791 5791 5792 5794 5795 5796 5797 5798 5798
5734 5735 5736 5738 5740 5741 5743 5745 5746 5748 5750 5751 5753 5754 5755 5756 5757 5758 5759 5761 5763 5766 5769 5772 5774 5775 5778 5780 5780 5781 5781 5782 5783 5784 5785 5786 5787 5787
5726 5727 5728 5730 5732 5734 5736 5738 5739 5741 5743 5744 5746 5747 5749 5750 5751 5753 5753 5754 5756 5758 5760 5762 5764 5765 5767 5769 5769 5770 5771 5772 5772 5773 5773 5774 5775 5776
5716 5716 5717 5720 5723 5726 5729 5731 5734 5735 5737 5738 5740 5741 5743 5744 5746 5747 5747 5748 5749 5750 5750 5752 5753 5754 5756 5758 5759 5759 5759 5760 5761 5761 5761 5762 5763 5763
5705 5704 5704 5707 5711 5716 5720 5724 5727 5730 5732 5733 5734 5736 5737 5738 5739 5740 5741 5741 5741 5742 5743 5743 5744 5745 5745 5747 5748 5748 5748 5748 5748 5749 5749 5749 5749 5750
5692 5689 5689 5692 5698 5705 5711 5717 5721 5724 5726 5728 5729 5730 5731 5732 5733 5733 5734 5734 5734 5735 5735 5734 5735 5735 5735 5735 5736 5736 5736 5736 5736 5735 5735 5735 5735 5735
5681 5678 5678 5682 5689 5698 5705 5710 5715 5718 5720 5722 5724 5725 5726 5726 5726 5726 5726 5726 5726 5726 5726 5726 5726 5725 5725 5725 5725 5725 5724 5724 5723 5722 5722 5721 5721 5721
5679 5676 5677 5681 5687 5694 5700 5706 5711 5714 5716 5718 5720 5721 5721 5721 5721 5720 5720 5720 5719 5719 5718 5718 5717 5717 5716 5715 5715 5714 5713 5712 5711 5710 5709 5709 5708 5707
5681 5681 5682 5685 5689 5694 5699 5704 5708 5711 5714 5715 5716 5717 5717 5716 5716 5716 5715 5714 5713 5712 5710 5709 5708 5707 5706 5705 5703 5701 5701 5699 5698 5697 5696 5696 5695 5694
5686 5686 5687 5690 5693 5697 5701 5705 5708 5711 5712 5713 5714 5714 5713 5713 5711 5710 5709 5707 5706 5704 5702 5700 5698 5697 5695 5694 5692 5689 5687 5686 5684 5683 5682 5682 5681 5681
5690 5691 5693 5695 5698 5701 5704 5707 5710 5711 5712 5713 5712 5711 5710 5708 5707 5705 5702 5700 5698 5695 5692 5690 5687 5685 5683 5681 5679 5677 5674 5672 5670 5669 5668 5667 5667 5666
5697 5698 5700 5702 5704 5706 5708 5710 5711 5712 5712 5712 5711 5709 5707 5704 5701 5698 5695 5692 5688 5685 5682 5679 5676 5674 5671 5669 5667 5664 5662 5659 5657 5655 5653 5652 5651 5651
5705 5706 5707 5708 5709 5711 5712 5713 5713 5713 5712 5711 5709 5706 5703 5699 5695 5691 5688 5684 5680 5677 5673 5670 5667 5665 5662 5659 5656 5653 5650 5647 5644 5642 5639 5637 5636 5635